When you browse on this site, cookies collect data to enhance your experience and personalize the content and advertising you see.
Visit our Privacy Policy to learn more. By continuing to use the site, you agree to this use of cookies and data.
  • en France
  • Liste des pays
  • À 7 jours
  • Température de l'eau
  • Carte météo
  • Widgets météo
  • user-avatar
    Se connecter

    Météo par heure à Holhol

    Ce jour, 23 Août, Vendredi

    Heure Température Précipitation Vent Pression Humidité
    00:00 +34°C° 0 mm 2 m/s 710 mmHg 53%
    01:00 +32°C° 0 mm 2 m/s 710 mmHg 53%
    02:00 +32°C° 0 mm 1 m/s 709 mmHg 52%
    03:00 +32°C° 0 mm 1 m/s 709 mmHg 52%
    04:00 +32°C° 0 mm 1 m/s 709 mmHg 52%
    05:00 +32°C° 0 mm 1 m/s 710 mmHg 52%
    06:00 +32°C° 0 mm 1 m/s 710 mmHg 51%
    07:00 +34°C° 0 mm 2 m/s 711 mmHg 46%
    08:00 +35°C° 0 mm 4 m/s 711 mmHg 41%
    09:00 +36°C° 0 mm 5 m/s 712 mmHg 36%
    10:00 +38°C° 0 mm 6 m/s 712 mmHg 33%
    11:00 +40°C° 0 mm 7 m/s 712 mmHg 30%
    12:00 +41°C° 0 mm 8 m/s 712 mmHg 27%
    13:00 +41°C° 0 mm 7 m/s 711 mmHg 26%
    14:00 +41°C° 0 mm 6 m/s 710 mmHg 24%
    15:00 +42°C° 0 mm 4 m/s 709 mmHg 23%
    16:00 +40°C° 0 mm 4 m/s 709 mmHg 28%
    17:00 +38°C° 0 mm 4 m/s 709 mmHg 33%
    18:00 +37°C° 0 mm 3 m/s 709 mmHg 37%
    19:00 +36°C° 0 mm 3 m/s 709 mmHg 42%
    20:00 +35°C° 0 mm 3 m/s 710 mmHg 46%
    21:00 +34°C° 0 mm 3 m/s 710 mmHg 50%
    22:00 +34°C° 0 mm 2 m/s 710 mmHg 48%
    23:00 +34°C° 0 mm 2 m/s 710 mmHg 47%

    Demain, 24 Août, Samedi

    Heure Température Précipitation Vent Pression Humidité
    00:00 +33°C° 0 mm 1 m/s 711 mmHg 46%
    01:00 +33°C° 0 mm 1 m/s 710 mmHg 44%
    02:00 +33°C° 0 mm 1 m/s 710 mmHg 43%
    03:00 +34°C° 0 mm 2 m/s 710 mmHg 42%
    04:00 +34°C° 0.1 mm 2 m/s 710 mmHg 41%
    05:00 +34°C° 0.1 mm 3 m/s 711 mmHg 41%
    06:00 +34°C° 0.1 mm 4 m/s 711 mmHg 41%
    07:00 +35°C° 0 mm 6 m/s 712 mmHg 38%
    08:00 +35°C° 0 mm 8 m/s 712 mmHg 36%
    09:00 +37°C° 0 mm 11 m/s 713 mmHg 34%
    10:00 +38°C° 0 mm 10 m/s 713 mmHg 32%
    11:00 +40°C° 0 mm 9 m/s 712 mmHg 29%
    12:00 +41°C° 0 mm 8 m/s 712 mmHg 27%
    13:00 +41°C° 0 mm 7 m/s 712 mmHg 26%
    14:00 +42°C° 0 mm 5 m/s 711 mmHg 25%
    15:00 +42°C° 0 mm 4 m/s 710 mmHg 23%
    16:00 +41°C° 0 mm 4 m/s 710 mmHg 26%
    17:00 +39°C° 0 mm 3 m/s 709 mmHg 28%
    18:00 +38°C° 0 mm 3 m/s 709 mmHg 31%
    19:00 +37°C° 0 mm 3 m/s 710 mmHg 35%
    20:00 +36°C° 0 mm 3 m/s 710 mmHg 40%
    21:00 +35°C° 0 mm 3 m/s 711 mmHg 45%
    22:00 +34°C° 0 mm 2 m/s 711 mmHg 45%
    23:00 +34°C° 0 mm 2 m/s 711 mmHg 45%

    Après-demain, 25 Août, Dimanche

    Heure Température Précipitation Vent Pression Humidité
    00:00 +33°C° 0 mm 1 m/s 711 mmHg 45%
    01:00 +33°C° 0 mm 1 m/s 711 mmHg 45%
    02:00 +34°C° 0 mm 2 m/s 711 mmHg 44%
    03:00 +34°C° 0 mm 3 m/s 711 mmHg 44%
    04:00 +33°C° 0.4 mm 5 m/s 711 mmHg 46%
    05:00 +33°C° 0.4 mm 8 m/s 711 mmHg 48%
    06:00 +32°C° 0.4 mm 10 m/s 712 mmHg 50%
    07:00 +33°C° 0 mm 10 m/s 712 mmHg 47%
    08:00 +34°C° 0 mm 9 m/s 712 mmHg 43%
    09:00 +35°C° 0 mm 9 m/s 713 mmHg 39%
    10:00 +38°C° 0 mm 9 m/s 713 mmHg 35%
    11:00 +39°C° 0 mm 9 m/s 712 mmHg 31%
    12:00 +41°C° 0 mm 8 m/s 712 mmHg 27%
    13:00 +41°C° 0 mm 8 m/s 712 mmHg 25%
    14:00 +41°C° 0 mm 7 m/s 711 mmHg 24%
    15:00 +42°C° 0 mm 6 m/s 710 mmHg 23%
    16:00 +41°C° 0 mm 5 m/s 710 mmHg 23%
    17:00 +41°C° 0 mm 5 m/s 710 mmHg 24%
    18:00 +41°C° 0 mm 4 m/s 709 mmHg 24%
    19:00 +40°C° 0 mm 4 m/s 710 mmHg 28%
    20:00 +37°C° 0 mm 3 m/s 710 mmHg 31%
    21:00 +36°C° 0 mm 3 m/s 711 mmHg 34%
    22:00 +36°C° 0 mm 2 m/s 711 mmHg 35%
    23:00 +36°C° 0 mm 2 m/s 710 mmHg 35%

    26 Août, Lundi

    Heure Température Précipitation Vent Pression Humidité
    00:00 +36°C° 0 mm 2 m/s 710 mmHg 36%
    01:00 +35°C° 0 mm 2 m/s 710 mmHg 37%
    02:00 +35°C° 0 mm 2 m/s 710 mmHg 39%
    03:00 +34°C° 0 mm 2 m/s 710 mmHg 40%
    04:00 +34°C° 0 mm 3 m/s 710 mmHg 39%
    05:00 +34°C° 0 mm 3 m/s 710 mmHg 38%
    06:00 +33°C° 0 mm 4 m/s 711 mmHg 38%
    07:00 +34°C° 0 mm 5 m/s 711 mmHg 36%
    08:00 +35°C° 0 mm 5 m/s 712 mmHg 35%
    09:00 +36°C° 0 mm 6 m/s 712 mmHg 33%
    10:00 +39°C° 0 mm 6 m/s 712 mmHg 30%
    11:00 +40°C° 0 mm 6 m/s 712 mmHg 27%
    12:00 +41°C° 0 mm 6 m/s 711 mmHg 24%
    13:00 +42°C° 0 mm 6 m/s 711 mmHg 22%
    14:00 +44°C° 0 mm 6 m/s 710 mmHg 20%
    15:00 +43°C° 0 mm 5 m/s 709 mmHg 18%
    16:00 +42°C° 0 mm 5 m/s 709 mmHg 20%
    17:00 +41°C° 0 mm 5 m/s 709 mmHg 22%
    18:00 +40°C° 0 mm 4 m/s 708 mmHg 24%
    19:00 +38°C° 0 mm 3 m/s 709 mmHg 28%
    20:00 +37°C° 0 mm 3 m/s 709 mmHg 31%
    21:00 +36°C° 0 mm 2 m/s 710 mmHg 35%
    22:00 +36°C° 0 mm 2 m/s 710 mmHg 35%
    23:00 +36°C° 0 mm 2 m/s 710 mmHg 35%

    27 Août, Mardi

    Heure Température Précipitation Vent Pression Humidité
    00:00 +35°C° 0 mm 2 m/s 709 mmHg 35%
    01:00 +35°C° 0 mm 2 m/s 709 mmHg 36%
    02:00 +35°C° 0 mm 2 m/s 709 mmHg 36%
    03:00 +33°C° 0 mm 1 m/s 709 mmHg 37%
    04:00 +33°C° 0 mm 1 m/s 709 mmHg 37%
    05:00 +33°C° 0 mm 1 m/s 710 mmHg 38%
    06:00 +32°C° 0 mm 2 m/s 710 mmHg 39%
    07:00 +35°C° 0 mm 4 m/s 711 mmHg 36%
    08:00 +36°C° 0 mm 6 m/s 711 mmHg 33%
    09:00 +38°C° 0 mm 8 m/s 712 mmHg 30%
    10:00 +40°C° 0 mm 8 m/s 711 mmHg 26%
    11:00 +41°C° 0 mm 7 m/s 711 mmHg 23%
    12:00 +43°C° 0 mm 7 m/s 711 mmHg 19%
    13:00 +44°C° 0 mm 6 m/s 710 mmHg 19%
    14:00 +43°C° 0 mm 5 m/s 709 mmHg 19%
    15:00 +43°C° 0 mm 5 m/s 708 mmHg 19%
    16:00 +42°C° 0 mm 5 m/s 708 mmHg 22%
    17:00 +40°C° 0 mm 5 m/s 708 mmHg 26%
    18:00 +39°C° 0 mm 5 m/s 708 mmHg 30%
    19:00 +37°C° 0 mm 4 m/s 708 mmHg 30%
    20:00 +37°C° 0 mm 3 m/s 709 mmHg 30%
    21:00 +37°C° 0 mm 2 m/s 709 mmHg 30%
    22:00 +36°C° 0 mm 2 m/s 709 mmHg 30%
    23:00 +36°C° 0 mm 2 m/s 709 mmHg 31%

    28 Août, Mercredi

    Heure Température Précipitation Vent Pression Humidité
    00:00 +36°C° 0 mm 3 m/s 709 mmHg 31%
    01:00 +35°C° 0 mm 2 m/s 709 mmHg 32%
    02:00 +35°C° 0 mm 2 m/s 709 mmHg 34%
    03:00 +33°C° 0 mm 1 m/s 708 mmHg 35%
    04:00 +33°C° 0 mm 1 m/s 709 mmHg 35%
    05:00 +34°C° 0 mm 2 m/s 709 mmHg 35%
    06:00 +34°C° 0 mm 2 m/s 710 mmHg 34%
    07:00 +35°C° 0 mm 4 m/s 710 mmHg 32%
    08:00 +36°C° 0 mm 6 m/s 711 mmHg 30%
    09:00 +38°C° 0 mm 8 m/s 711 mmHg 27%
    10:00 +39°C° 0 mm 7 m/s 711 mmHg 25%
    11:00 +41°C° 0 mm 6 m/s 710 mmHg 23%
    12:00 +42°C° 0 mm 5 m/s 710 mmHg 21%
    13:00 +42°C° 0 mm 5 m/s 709 mmHg 21%
    14:00 +42°C° 0 mm 5 m/s 709 mmHg 20%
    15:00 +43°C° 0 mm 4 m/s 708 mmHg 20%
    16:00 +41°C° 0 mm 5 m/s 708 mmHg 23%
    17:00 +40°C° 0 mm 6 m/s 708 mmHg 26%
    18:00 +39°C° 0 mm 6 m/s 708 mmHg 30%
    19:00 +39°C° 0 mm 6 m/s 708 mmHg 30%
    20:00 +37°C° 0 mm 5 m/s 709 mmHg 30%
    21:00 +37°C° 0 mm 5 m/s 709 mmHg 31%
    22:00 +36°C° 0 mm 4 m/s 709 mmHg 31%
    23:00 +36°C° 0 mm 4 m/s 709 mmHg 32%
    Voir plus